This demonstration page uses our WeatherBlox Daily Observations layout. Learn more.

Left ArrowRight Arrow

36.17497, -115.13722

Hourly Observations for April 24, 2016

Temp ( °F °C ) Dew Point ( °F °C ) Humidity (%) Winds ( mph kmh ) Pressure ( in mb ) Visibility ( mi km ) Precip ( " mm )
12:53 am 00:53 Clear 67 19.4 16 -8.9 14 14 NNW 12 19 29.91 1013 10 16.0934 0 0
1:53 am 01:53 Clear 65 18.3 18 -7.8 16 16 NNW 10 17 29.91 1013 10 16.0934 0 0
2:53 am 02:53 Clear 63 17.2 20 -6.7 19 19 NNE 7 11 29.9 1013 10 16.0934 0 0
3:53 am 03:53 Clear 61 16.1 21 -6.1 21 21 E 3 6 29.91 1013 10 16.0934 0 0
4:53 am 04:53 Clear 61 16.1 21 -6.1 21 21 N 5 7 29.9 1013 10 16.0934 0 0
5:53 am 05:53 Clear 58 14.4 22 -5.6 25 25 Calm 29.91 1013 10 16.0934 0 0
6:53 am 06:53 Sunny 59 15 24 -4.4 26 26 NNW 3 6 29.92 1013 10 16.0934 0 0
7:53 am 07:53 Sunny 64 17.8 25 -3.9 23 23 Calm 29.92 1013 10 16.0934 0 0
8:53 am 08:53 Sunny 67 19.4 25 -3.9 20 20 S 3 6 29.91 1013 10 16.0934 0 0
9:53 am 09:53 Sunny 70 21.1 25 -3.9 18 18 SE 7 11 29.91 1013 10 16.0934 0 0
10:53 am 10:53 Sunny 72 22.2 25 -3.9 17 17 E 8 13 29.9 1012 10 16.0934 0 0
11:53 am 11:53 Sunny 73 22.8 24 -4.4 16 16 SSE 3 6 29.86 1011 10 16.0934 0 0
12:53 pm 12:53 Sunny 75 23.9 23 -5 14 14 SE 9 15 29.82 1010 10 16.0934 0 0
1:53 pm 13:53 Sunny 77 25 24 -4.4 14 14 VRB 7 11 29.78 1009 10 16.0934 0 0
2:53 pm 14:53 Sunny 78 25.6 24 -4.4 13 13 SSE 12 19 29.73 1007 10 16.0934 0 0
3:53 pm 15:53 Mostly Sunny 78 25.6 21 -6.1 12 12 W 22 35 29.71 1006 10 16.0934 0 0
4:53 pm 16:53 Mostly Cloudy 76 24.4 22 -5.6 13 13 W 17 28 29.71 1006 10 16.0934 0 0
5:53 pm 17:53 Mostly Cloudy 74 23.3 28 -2.2 18 18 WSW 23 37 29.73 1007 10 16.0934 0 0
6:53 pm 18:53 Sunny 70 21.1 32 0 25 25 NW 12 19 29.7 1006 10 16.0934 0 0
7:53 pm 19:53 Clear 70 21.1 30 -1.1 23 23 ENE 5 7 29.69 1005 10 16.0934 0 0
8:53 pm 20:53 Mostly Clear 69 20.6 31 -0.6 24 24 VRB 6 9 29.66 1004 10 16.0934 0 0
9:53 pm 21:53 Clear 70 21.1 28 -2.2 21 21 WSW 6 9 29.64 1004 10 16.0934 0 0
10:53 pm 22:53 Clear 68 20 26 -3.3 21 21 SW 12 19 29.62 1003 10 16.0934 0 0
11:53 pm 23:53 Clear 66 18.9 27 -2.8 23 23 WSW 12 19 29.59 1002 10 16.0934 0 0

Powered by AerisWeather